| time (UTC) | temp F | wind direction | speed MPH | gust MPH | rain 1hr in | rain 24hr in | rain mn in | humidity % | barometer mb |
| 20260901071531 | 72 | 129 | 0.0 | 1.0 | 0.00 | 0.00 | 0.00 | 97 | 1018.2 |
| 20260901070029 | 72 | 129 | 0.0 | 1.0 | 0.00 | 0.00 | 0.00 | 96 | 1018.1 |
| 20260901064527 | 73 | 129 | 0.0 | 2.0 | 0.00 | 0.00 | 0.00 | 96 | 1018.1 |
| 20260901063026 | 73 | 129 | 0.0 | 0.0 | 0.00 | 0.00 | 0.00 | 97 | 1018.4 |
| 20260901061523 | 72 | 129 | 0.0 | 0.0 | 0.00 | 0.00 | 0.00 | 97 | 1018.3 |
| 20260901060016 | 72 | 129 | 0.0 | 0.0 | 0.00 | 0.00 | 0.00 | 96 | 1018.5 |
| 20260901054513 | 73 | 129 | 0.0 | 0.0 | 0.00 | 0.00 | 0.00 | 97 | 1018.6 |
| 20260901053009 | 72 | 129 | 0.0 | 0.0 | 0.00 | 0.00 | 0.00 | 97 | 1018.7 |
| 20260901051505 | 73 | 129 | 0.0 | 0.0 | 0.00 | 0.00 | 0.00 | 97 | 1018.9 |
| 20260901050002 | 73 | 129 | 0.0 | 0.0 | 0.00 | 0.00 | 0.00 | 96 | 1018.9 |
| 20260901044604 | 73 | 129 | 0.0 | 0.0 | 0.00 | 0.00 | 0.00 | 96 | 1018.9 |
| 20260901043056 | 73 | 129 | 0.0 | 0.0 | 0.00 | 0.00 | 0.00 | 97 | 1018.8 |
| 20260901041551 | 73 | 129 | 0.0 | 0.0 | 0.00 | 0.00 | 0.00 | 96 | 1018.7 |
| 20260901040050 | 73 | 129 | 0.0 | 0.0 | 0.00 | 0.00 | 0.00 | 96 | 1018.7 |
| 20260901034547 | 73 | 129 | 0.0 | 0.0 | 0.00 | 0.00 | 0.00 | 96 | 1018.7 |
| 20260901033055 | 74 | 129 | 0.0 | 0.0 | 0.00 | 0.00 | 0.00 | 96 | 1018.6 |
| 20260901031545 | 74 | 129 | 0.0 | 0.0 | 0.00 | 0.00 | 0.00 | 96 | 1018.4 |
| 20260901030047 | 74 | 129 | 0.0 | 0.0 | 0.00 | 0.00 | 0.00 | 96 | 1018.5 |
| 20260901024541 | 74 | 129 | 0.0 | 0.0 | 0.00 | 0.00 | 0.00 | 95 | 1018.5 |
| 20260901023045 | 74 | 129 | 0.0 | 0.0 | 0.00 | 0.00 | 0.00 | 95 | 1018.5 |
| 20260901021557 | 74 | 129 | 0.0 | 0.0 | 0.00 | 0.00 | 0.00 | 95 | 1018.4 |
| 20260901020042 | 75 | 129 | 0.0 | 0.0 | 0.00 | 0.00 | 0.00 | 94 | 1018.5 |
| 20260901014539 | 75 | 129 | 0.0 | 0.0 | 0.00 | 0.00 | 0.00 | 94 | 1018.4 |
| 20260901013049 | 75 | 129 | 0.0 | 0.0 | 0.00 | 0.00 | 0.00 | 93 | 1018.2 |
| 20260901011603 | 76 | 129 | 0.0 | 0.0 | 0.00 | 0.00 | 0.00 | 92 | 1018.1 |
| 20260901010038 | 76 | 129 | 0.0 | 0.0 | 0.00 | 0.00 | 0.00 | 91 | 1018.0 |
| 20260901004537 | 77 | 129 | 0.0 | 0.0 | 0.00 | 0.00 | 0.00 | 90 | 1017.9 |
| 20260901003046 | 77 | 129 | 0.0 | 0.0 | 0.00 | 0.00 | 0.00 | 88 | 1017.8 |
| 20260901001537 | 78 | 129 | 0.0 | 0.0 | 0.00 | 0.00 | 0.00 | 86 | 1017.7 |
| 20260901000037 | 80 | 129 | 0.0 | 0.0 | 0.00 | 0.00 | 0.00 | 84 | 1017.6 |
| 20260831234536 | 81 | 129 | 0.0 | 0.0 | 0.00 | 0.00 | 0.00 | 84 | 1017.6 |
| 20260831233036 | 82 | 129 | 0.0 | 0.0 | 0.00 | 0.00 | 0.00 | 81 | 1017.6 |
| 20260831231535 | 84 | 129 | 0.0 | 0.0 | 0.00 | 0.00 | 0.00 | 77 | 1017.5 |
| 20260831230034 | 85 | 129 | 0.0 | 1.0 | 0.00 | 0.00 | 0.00 | 74 | 1017.5 |
| 20260831224532 | 86 | 298 | 0.0 | 1.0 | 0.00 | 0.00 | 0.00 | 73 | 1017.5 |
| 20260831223037 | 86 | 298 | 0.0 | 1.0 | 0.00 | 0.00 | 0.00 | 72 | 1017.6 |
| 20260831221532 | 86 | 298 | 0.0 | 2.0 | 0.00 | 0.00 | 0.00 | 70 | 1017.7 |
| 20260831220030 | 86 | 86 | 1.0 | 4.0 | 0.00 | 0.00 | 0.00 | 70 | 1017.8 |
| 20260831214530 | 86 | 277 | 0.0 | 4.0 | 0.00 | 0.00 | 0.00 | 72 | 1017.9 |
| 20260831213029 | 85 | 179 | 0.0 | 0.0 | 0.00 | 0.00 | 0.00 | 78 | 1017.8 |
| 20260831211536 | 84 | 179 | 0.0 | 0.0 | 0.00 | 0.00 | 0.00 | 77 | 1017.7 |
| 20260831210030 | 85 | 179 | 0.0 | 0.0 | 0.00 | 0.00 | 0.00 | 76 | 1017.8 |
| 20260831204526 | 87 | 179 | 0.0 | 0.0 | 0.00 | 0.00 | 0.00 | 70 | 1017.9 |
| 20260831203038 | 89 | 67 | 0.0 | 2.0 | 0.00 | 0.00 | 0.00 | 63 | 1018.3 |
| 20260831201525 | 90 | 174 | 1.0 | 5.0 | 0.00 | 0.00 | 0.00 | 60 | 1018.2 |
| 20260831200027 | 91 | 207 | 0.0 | 5.0 | 0.00 | 0.00 | 0.00 | 61 | 1018.2 |
| 20260831194622 | 90 | 175 | 0.0 | 4.0 | 0.00 | 0.00 | 0.00 | 64 | 1018.3 |
| 20260831193020 | 90 | 238 | 0.0 | 3.0 | 0.00 | 0.00 | 0.00 | 63 | 1018.3 |
| 20260831191519 | 90 | 238 | 1.0 | 4.0 | 0.00 | 0.00 | 0.00 | 64 | 1018.6 |
| 20260831190020 | 90 | 209 | 0.0 | 3.0 | 0.00 | 0.00 | 0.00 | 67 | 1018.9 |
| 20260831184515 | 90 | 267 | 3.0 | 6.0 | 0.00 | 0.00 | 0.00 | 66 | 1018.9 |
| 20260831183013 | 90 | 119 | 0.0 | 2.0 | 0.00 | 0.00 | 0.00 | 69 | 1019.2 |
| 20260831181512 | 89 | 119 | 1.0 | 3.0 | 0.00 | 0.00 | 0.00 | 68 | 1019.3 |
| 20260831180009 | 89 | 242 | 1.0 | 4.0 | 0.00 | 0.00 | 0.00 | 68 | 1019.4 |
| 20260831174507 | 88 | 229 | 1.0 | 6.0 | 0.00 | 0.00 | 0.00 | 69 | 1019.5 |
| 20260831173004 | 88 | 239 | 1.0 | 4.0 | 0.00 | 0.00 | 0.00 | 67 | 1019.7 |
| 20260831171502 | 87 | 229 | 1.0 | 5.0 | 0.00 | 0.00 | 0.00 | 73 | 1019.6 |
| 20260831170001 | 87 | 234 | 1.0 | 3.0 | 0.00 | 0.00 | 0.00 | 73 | 1019.8 |
| 20260831164558 | 87 | 119 | 2.0 | 6.0 | 0.00 | 0.00 | 0.00 | 73 | 1019.8 |
| 20260831163058 | 86 | 176 | 1.0 | 6.0 | 0.00 | 0.00 | 0.00 | 71 | 1020.0 |
| 20260831161555 | 86 | 304 | 1.0 | 3.0 | 0.00 | 0.00 | 0.00 | 75 | 1020.0 |
| 20260831154555 | 85 | 281 | 0.0 | 2.0 | 0.00 | 0.00 | 0.00 | 76 | 1020.4 |
| 20260831153048 | 84 | 310 | 0.0 | 3.0 | 0.00 | 0.00 | 0.00 | 77 | 1020.5 |
| 20260831151546 | 83 | 252 | 2.0 | 5.0 | 0.00 | 0.00 | 0.00 | 77 | 1020.4 |
| 20260831150043 | 82 | 309 | 0.0 | 4.0 | 0.00 | 0.00 | 0.00 | 80 | 1020.6 |
| 20260831144549 | 81 | 298 | 0.0 | 4.0 | 0.00 | 0.00 | 0.00 | 82 | 1020.6 |
| 20260831143039 | 80 | 288 | 1.0 | 4.0 | 0.00 | 0.00 | 0.00 | 82 | 1020.5 |
| 20260831141535 | 79 | 82 | 0.0 | 4.0 | 0.00 | 0.00 | 0.00 | 86 | 1020.5 |
| 20260831140034 | 77 | 192 | 1.0 | 5.0 | 0.00 | 0.00 | 0.00 | 89 | 1020.3 |
| 20260831134526 | 75 | 269 | 0.0 | 4.0 | 0.00 | 0.00 | 0.00 | 94 | 1020.4 |
| 20260831133026 | 74 | 242 | 1.0 | 5.0 | 0.00 | 0.00 | 0.00 | 98 | 1020.4 |
| 20260831131516 | 72 | 237 | 1.0 | 3.0 | 0.00 | 0.00 | 0.00 | 99 | 1020.4 |
| 20260831130013 | 72 | 238 | 0.0 | 3.0 | 0.00 | 0.00 | 0.00 | 99 | 1020.4 |
| 20260831124508 | 71 | 238 | 0.0 | 2.0 | 0.00 | 0.00 | 0.00 | 99 | 1020.4 |
| 20260831123004 | 70 | 190 | 0.0 | 1.0 | 0.00 | 0.00 | 0.00 | 99 | 1020.4 |
| 20260831121502 | 69 | 190 | 0.0 | 1.0 | 0.00 | 0.00 | 0.00 | 99 | 1020.4 |
| 20260831120112 | 68 | 190 | 0.0 | 0.0 | 0.00 | 0.00 | 0.00 | 98 | 1020.3 |
| 20260831114558 | 68 | 190 | 0.0 | 1.0 | 0.00 | 0.00 | 0.00 | 99 | 1020.2 |
| 20260831113057 | 67 | 190 | 0.0 | 0.0 | 0.00 | 0.00 | 0.00 | 98 | 1020.3 |
| 20260831111609 | 66 | 190 | 0.0 | 0.0 | 0.00 | 0.00 | 0.00 | 98 | 1020.2 |
| 20260831110052 | 66 | 190 | 0.0 | 0.0 | 0.00 | 0.00 | 0.00 | 98 | 1020.0 |
| 20260831104552 | 66 | 190 | 0.0 | 0.0 | 0.00 | 0.00 | 0.00 | 98 | 1020.1 |
| 20260831103059 | 66 | 190 | 0.0 | 0.0 | 0.00 | 0.00 | 0.00 | 98 | 1020.1 |
| 20260831101556 | 66 | 190 | 0.0 | 1.0 | 0.00 | 0.00 | 0.00 | 98 | 1020.0 |
| 20260831100051 | 66 | 190 | 0.0 | 0.0 | 0.00 | 0.00 | 0.00 | 98 | 1020.0 |
| 20260831094648 | 66 | 190 | 0.0 | 0.0 | 0.00 | 0.00 | 0.00 | 98 | 1020.0 |
| 20260831093048 | 66 | 190 | 0.0 | 0.0 | 0.00 | 0.00 | 0.00 | 98 | 1019.9 |
| 20260831091557 | 66 | 190 | 0.0 | 0.0 | 0.00 | 0.00 | 0.00 | 98 | 1019.8 |
| 20260831090046 | 66 | 190 | 0.0 | 0.0 | 0.00 | 0.00 | 0.00 | 98 | 1019.7 |
| 20260831084545 | 67 | 190 | 0.0 | 1.0 | 0.00 | 0.00 | 0.00 | 97 | 1019.6 |
| 20260831083045 | 67 | 190 | 0.0 | 0.0 | 0.00 | 0.00 | 0.00 | 97 | 1019.6 |
| 20260831081544 | 67 | 190 | 0.0 | 0.0 | 0.00 | 0.00 | 0.00 | 97 | 1019.7 |
| 20260831080100 | 68 | 190 | 0.0 | 0.0 | 0.00 | 0.00 | 0.00 | 98 | 1019.8 |
| 20260831074541 | 67 | 190 | 0.0 | 0.0 | 0.00 | 0.00 | 0.00 | 98 | 1019.9 |
| 20260831073102 | 67 | 190 | 0.0 | 0.0 | 0.00 | 0.00 | 0.00 | 98 | 1019.9 |